Cheyenne, WY

10:40 PM MDT on July 26, 2017 (GMT -0600)
Cheyenne

Weather History for KCYS - October, 2012

Change the Weather History Date:

Sunday, October 28, 2012

  Actual Average Record
Temperature  
Mean Temperature 43 °F 43 °F  
Max Temperature 54 °F 55 °F 76 °F (1937)
Min Temperature 32 °F 31 °F 3 °F (1917)
Degree Days  
Heating Degree Days 22 22  
Month to date heating degree days 586 510  
Since 1 July heating degree days 756 791  
Cooling Degree Days 0 0  
Month to date cooling degree days 0 0  
Year to date cooling degree days 568 348  
Moisture  
Dew Point 28 °F    
Average Humidity 54    
Maximum Humidity 64    
Minimum Humidity 44    
Precipitation  
Precipitation 0.00 in 0.02 in 0.58 in (1875)
Month to date precipitation 1.12 0.86  
Year to date precipitation 9.55 14.79  
Snow  
Snow 0.00 in 0.20 in 6.70 in (2009)
Month to date snowfall 10.2 4.4  
Since 1 July snowfall 10.2 5.7  
Snow Depth 0.00 in    
Sea Level Pressure  
Sea Level Pressure 30.04 in    
Wind  
Wind Speed 13 mph (WSW)    
Max Wind Speed 28 mph    
Max Gust Speed 32 mph    
Visibility 10 miles    
Events      
T = Trace of Precipitation, MM = Missing Value Source: NWS Daily Summary

Daily Weather History Graph

Daily Weather History Graph

Search for Another Location

Airport or City:

Trip Planner

Search our weather history database for the weather conditions in past years. The results will help you decide how hot, cold, wet, or windy it might be!

Date:

Astronomy

Oct. 28, 2012 Rise Set
Actual Time 7:26 AM MDT 5:59 PM MDT
Civil Twilight 6:57 AM MDT 6:27 PM MDT
Nautical Twilight 6:25 AM MDT 6:59 PM MDT
Astronomical Twilight 5:53 AM MDT 7:31 PM MDT
Moon 5:18 PM MDT (10/28) 6:21 AM MDT (10/28)
Length of Visible Light 11h 29m
Length of Day
10h 32m
Waxing Gibbous, 99% of the Moon is Illuminated
Oct 28
Waxing Gibbous
Oct 29
Full
Nov 6
Last Quarter
Nov 13
New
Nov 20
First Quarter

Hourly Weather History & Observations

Time (MDT) Temp. Windchill Dew Point Humidity Pressure Visibility Wind Dir Wind Speed Gust Speed Precip Events Conditions
12:53 AM 37.0 °F 30.4 °F 21.0 °F 52% 30.10 in 10.0 mi SW 9.2 mph - N/A   Overcast
1:53 AM 33.1 °F 26.9 °F 23.0 °F 66% 30.11 in 10.0 mi WSW 6.9 mph - N/A   Mostly Cloudy
2:53 AM 35.1 °F 27.9 °F 24.1 °F 64% 30.08 in 10.0 mi SW 9.2 mph - N/A   Overcast
3:53 AM 35.1 °F 27.4 °F 23.0 °F 61% 30.06 in 10.0 mi SW 10.4 mph - N/A   Overcast
4:53 AM 35.1 °F 27.4 °F 23.0 °F 61% 30.08 in 10.0 mi SW 10.4 mph - N/A   Overcast
5:53 AM 35.1 °F 26.4 °F 21.9 °F 59% 30.09 in 10.0 mi SSW 12.7 mph - N/A   Mostly Cloudy
6:53 AM 34.0 °F 27.2 °F 23.0 °F 64% 30.10 in 10.0 mi SW 8.1 mph - N/A   Clear
7:53 AM 41.0 °F 33.1 °F 26.1 °F 55% 30.06 in 10.0 mi WSW 15.0 mph - 0.00 in   Clear
8:53 AM 44.1 °F 38.6 °F 28.0 °F 53% 30.08 in 10.0 mi WSW 10.4 mph - N/A   Partly Cloudy
9:53 AM 46.0 °F 40.6 °F 28.9 °F 51% 30.05 in 10.0 mi WSW 11.5 mph - N/A   Clear
10:53 AM 46.4 °F 41.5 °F 28.4 °F 50% 30.07 in 10.0 mi WSW 10.4 mph - N/A   Overcast
11:53 AM 46.9 °F - 28.9 °F 50% 30.02 in 10.0 mi WSW 23.0 mph 32.2 mph N/A   Partly Cloudy
12:53 PM 48.0 °F - 30.0 °F 50% 29.99 in 10.0 mi West 19.6 mph 24.2 mph N/A   Scattered Clouds
1:53 PM 48.9 °F - 30.9 °F 50% 29.99 in 10.0 mi West 11.5 mph 24.2 mph N/A   Scattered Clouds
2:53 PM 51.1 °F - 33.1 °F 50% 29.96 in 10.0 mi West 18.4 mph 26.5 mph N/A   Clear
3:53 PM 53.1 °F - 32.0 °F 45% 29.97 in 10.0 mi WNW 15.0 mph 21.9 mph N/A   Clear
4:53 PM 52.0 °F - 30.9 °F 45% 29.98 in 10.0 mi West 24.2 mph 28.8 mph N/A   Clear
5:53 PM 50.0 °F - 32.0 °F 50% 29.99 in 10.0 mi WNW 18.4 mph - N/A   Clear
6:53 PM 48.0 °F - 30.9 °F 52% 30.02 in 10.0 mi WSW 9.2 mph - N/A   Clear
7:53 PM 46.0 °F 41.0 °F 30.9 °F 56% 30.01 in 10.0 mi SW 10.4 mph - N/A   Clear
8:53 PM 43.0 °F 39.5 °F 30.9 °F 62% 30.01 in 10.0 mi WSW 5.8 mph - N/A   Clear
9:53 PM 46.9 °F - 30.0 °F 52% 30.00 in 10.0 mi WSW 13.8 mph - N/A   Clear
10:53 PM 46.0 °F 40.2 °F 30.0 °F 54% 30.02 in 10.0 mi WSW 12.7 mph - N/A   Clear
11:53 PM 46.9 °F - 30.9 °F 54% 30.02 in 10.0 mi WSW 10.4 mph - N/A   Clear